TimeGMT,TemperatureF,Dew PointF,Humidity,Sea Level PressureIn,VisibilityMPH,Wind Direction,Wind SpeedMPH,Gust SpeedMPH,PrecipitationIn,Events,Conditions,WindDirDegrees,DateUTC
2:50 AM,46,39,69,30.13,19,SSE,23.0,,,,Partly Cloudy,160,2012-12-12 02:50:00
5:50 AM,46,41,75,30.05,19,SSE,28.8,,,,Mostly Cloudy,160,2012-12-12 05:50:00
8:20 AM,46.4,41.0,81,30.01,6.2,SSE,29.9,-,N/A,,Mostly Cloudy,160,2012-12-12 08:20:00
8:50 AM,47,42,75,30.01,13,SSE,29.9,,,,Mostly Cloudy,160,2012-12-12 08:50:00
8:50 AM,46.4,41.0,81,30.01,6.2,SSE,29.9,-,N/A,,Mostly Cloudy,160,2012-12-12 08:50:00
9:20 AM,46.4,41.0,81,30.01,6.2,SSE,29.9,-,N/A,,Scattered Clouds,160,2012-12-12 09:20:00
9:50 AM,46.4,41.0,81,29.98,6.2,SSE,28.8,-,N/A,,Mostly Cloudy,160,2012-12-12 09:50:00
10:20 AM,46.4,41.0,81,29.98,6.2,SSE,29.9,-,N/A,,Mostly Cloudy,160,2012-12-12 10:20:00
10:50 AM,46.4,42.8,87,29.98,6.2,SSE,29.9,-,N/A,,Mostly Cloudy,160,2012-12-12 10:50:00
11:20 AM,46.4,41.0,81,29.95,6.2,SSE,29.9,-,N/A,,Mostly Cloudy,160,2012-12-12 11:20:00
11:50 AM,46,41,77,29.95,14,SSE,31.1,,,,Scattered Clouds,150,2012-12-12 11:50:00
11:50 AM,46.4,41.0,81,29.95,6.2,SSE,31.1,-,N/A,,Mostly Cloudy,150,2012-12-12 11:50:00
12:20 PM,46.4,41.0,81,29.95,6.2,SSE,29.9,-,N/A,,Mostly Cloudy,160,2012-12-12 12:20:00
1:20 PM,46.4,42.8,87,29.89,6.2,SSE,29.9,-,N/A,,Mostly Cloudy,160,2012-12-12 13:20:00
1:50 PM,46.4,42.8,87,29.86,6.2,SSE,32.2,-,N/A,Rain,Light Rain,160,2012-12-12 13:50:00
2:20 PM,46.4,41.0,81,29.86,6.2,SSE,29.9,-,N/A,,Mostly Cloudy,160,2012-12-12 14:20:00
2:50 PM,46,41,78,29.86,13,SSE,29.9,,,,Scattered Clouds,160,2012-12-12 14:50:00
2:50 PM,46.4,41.0,81,29.83,6.2,SSE,29.9,-,N/A,,Mostly Cloudy,160,2012-12-12 14:50:00
3:20 PM,46.4,41.0,81,29.83,6.2,SSE,31.1,-,N/A,,Mostly Cloudy,160,2012-12-12 15:20:00
3:50 PM,46.4,39.2,76,29.83,6.2,SSE,26.5,-,N/A,,Mostly Cloudy,150,2012-12-12 15:50:00
4:20 PM,46.4,39.2,76,29.83,6.2,SSE,28.8,-,N/A,,Mostly Cloudy,150,2012-12-12 16:20:00
4:50 PM,46.4,39.2,76,29.80,6.2,SE,27.6,-,N/A,,Mostly Cloudy,140,2012-12-12 16:50:00
5:50 PM,45,39,72,29.81,11,SSE,25.3,,,,Scattered Clouds,150,2012-12-12 17:50:00
8:50 PM,44,35,60,29.75,25,SE,21.9,,,,Scattered Clouds,130,2012-12-12 20:50:00
11:50 PM,43,35,64,29.69,14,SE,21.9,,,,Scattered Clouds,140,2012-12-12 23:50:00